EW3012 Weather Reports


Display with metric or nautical units.
time (UTC)temp
F
wind
direction
speed
MPH
gust
MPH
rain 1hr
in
rain 24hr
in
rain mn
in
humidity
%
barometer
mb
20191115120912 51 111 0.0 1.0 0.01 0.57 0.55 91 1018.0
20191115120408 51 129 0.0 1.0 0.01 0.57 0.55 91 1017.9
20191115115840 52 107 0.0 2.0 0.01 0.57 0.55 91 1017.9
20191115115336 52 117 0.0 0.0 0.01 0.57 0.55 91 1017.9
20191115114812 52 136 0.0 0.0 0.01 0.57 0.55 91 1017.9
20191115114243 52 120 0.0 0.0 0.01 0.57 0.55 91 1017.9
20191115113742 52 115 0.0 0.0 0.01 0.57 0.55 91 1017.9
20191115113239 52 115 0.0 0.0 0.01 0.57 0.55 91 1017.8
20191115112714 52 82 0.0 0.0 0.01 0.57 0.55 91 1017.7
20191115112208 52 82 0.0 0.0 0.01 0.57 0.55 91 1017.7
20191115111643 52 82 0.0 0.0 0.00 0.56 0.54 91 1017.6
20191115111137 52 73 0.0 0.0 0.00 0.56 0.54 91 1017.6
20191115110634 51 73 0.0 0.0 0.00 0.56 0.54 91 1017.6
20191115110106 51 115 0.0 0.0 0.01 0.56 0.54 91 1017.6
20191115105604 51 118 0.0 0.0 0.01 0.56 0.54 91 1017.5
20191115105056 51 119 0.0 0.0 0.01 0.56 0.54 91 1017.5
20191115104553 51 119 0.0 0.0 0.01 0.56 0.54 91 1017.6
20191115104050 51 119 0.0 0.0 0.01 0.56 0.54 91 1017.6
20191115103548 51 119 0.0 0.0 0.01 0.56 0.54 91 1017.5
20191115103023 51 119 0.0 0.0 0.01 0.56 0.54 91 1017.5
20191115102454 51 118 0.0 0.0 0.01 0.56 0.54 91 1017.5
20191115101951 51 118 0.0 0.0 0.01 0.56 0.54 91 1017.5
20191115101423 51 119 0.0 0.0 0.01 0.56 0.54 91 1017.4
20191115100902 51 119 0.0 0.0 0.01 0.56 0.54 91 1017.2
20191115100331 51 131 0.0 0.0 0.01 0.56 0.54 91 1017.2
20191115095829 51 131 0.0 0.0 0.00 0.55 0.54 91 1017.2
20191115095306 51 133 0.0 0.0 0.00 0.55 0.54 91 1017.2
20191115094759 51 133 0.0 0.0 0.00 0.55 0.54 91 1017.2
20191115094256 51 134 0.0 0.0 0.00 0.55 0.54 91 1017.2
20191115093755 52 134 0.0 0.0 0.00 0.55 0.54 91 1017.2
20191115093226 52 134 0.0 0.0 0.01 0.55 0.54 91 1017.1
20191115092723 52 167 0.0 0.0 0.01 0.55 0.54 91 1017.1
20191115092220 51 167 0.0 0.0 0.01 0.55 0.54 91 1017.0
20191115091202 51 131 0.0 0.0 0.01 0.55 0.54 91 1017.1
20191115090659 51 139 0.0 0.0 0.01 0.55 0.54 91 1017.1
20191115090139 51 139 0.0 0.0 0.01 0.55 0.54 91 1017.1
20191115085637 51 149 0.0 0.0 0.01 0.55 0.54 91 1017.1
20191115085111 51 121 0.0 0.0 0.01 0.55 0.54 91 1017.1
20191115084543 51 139 0.0 0.0 0.01 0.55 0.54 91 1017.1
20191115084040 51 138 0.0 0.0 0.01 0.55 0.54 91 1017.0
20191115083538 51 132 0.0 0.0 0.01 0.54 0.53 91 1016.9
20191115083038 51 132 0.0 0.0 0.01 0.54 0.53 91 1016.9
20191115082511 51 132 0.0 0.0 0.01 0.54 0.53 91 1016.9
20191115082009 51 133 0.0 0.0 0.01 0.54 0.53 91 1016.8
20191115081440 51 142 0.0 0.0 0.02 0.54 0.53 91 1016.7
20191115080938 51 142 0.0 0.0 0.02 0.54 0.53 91 1016.6
20191115080410 51 143 0.0 0.0 0.04 0.54 0.53 91 1016.5
20191115075907 51 142 0.0 3.0 0.06 0.54 0.53 91 1016.4
20191115075354 51 142 0.0 3.0 0.06 0.54 0.53 91 1016.3
20191115074858 51 228 0.0 1.0 0.06 0.54 0.53 91 1016.3
20191115074330 51 228 0.0 1.0 0.06 0.54 0.53 91 1016.2
20191115073827 51 262 0.0 0.0 0.06 0.54 0.53 91 1016.1
20191115073329 51 262 0.0 0.0 0.06 0.54 0.52 91 1016.1
20191115072830 50 262 0.0 0.0 0.06 0.54 0.52 91 1016.1
20191115072328 50 262 0.0 0.0 0.06 0.54 0.52 91 1016.1
20191115071828 50 262 0.0 0.0 0.07 0.54 0.52 91 1016.1
20191115071302 50 262 0.0 0.0 0.06 0.52 0.51 91 1016.1
20191115070758 50 262 0.0 0.0 0.06 0.52 0.50 91 1016.0
20191115070258 50 262 0.0 0.0 0.05 0.50 0.49 91 1016.0
20191115065732 50 262 0.0 0.0 0.03 0.49 0.47 91 1015.9
20191115065215 50 262 0.0 0.0 0.04 0.49 0.47 91 1015.9
20191115064718 50 262 0.0 0.0 0.04 0.49 0.47 91 1015.8
20191115064152 50 262 0.0 0.0 0.03 0.48 0.46 91 1015.8
20191115063649 50 262 0.0 0.0 0.04 0.48 0.46 91 1015.7
20191115063124 50 262 0.0 0.0 0.03 0.47 0.46 91 1015.7
20191115062620 50 262 0.0 0.0 0.03 0.47 0.46 91 1015.6
20191115062117 50 262 0.0 0.0 0.03 0.46 0.45 91 1015.5
20191115061551 50 256 0.0 0.0 0.02 0.46 0.45 91 1015.5
20191115061048 50 263 0.0 0.0 0.03 0.46 0.44 91 1015.5
20191115060544 50 263 0.0 0.0 0.04 0.46 0.44 91 1015.5
20191115060040 50 253 0.0 0.0 0.04 0.46 0.44 91 1015.4
20191115055517 50 263 0.0 0.0 0.04 0.46 0.44 91 1015.3
20191115054954 50 263 0.0 1.0 0.03 0.45 0.43 91 1015.3
20191115054440 50 263 0.0 1.0 0.03 0.45 0.43 91 1015.2
20191115053937 50 259 0.0 0.0 0.02 0.44 0.43 91 1015.2
20191115053410 50 262 0.0 0.0 0.02 0.44 0.43 91 1015.1
20191115052907 50 267 0.0 0.0 0.02 0.44 0.43 91 1015.0
20191115052342 50 267 0.0 0.0 0.02 0.43 0.43 91 1015.0
20191115051838 50 267 0.0 0.0 0.02 0.43 0.42 91 1015.0
20191115051335 50 267 0.0 1.0 0.02 0.43 0.41 91 1014.9
20191115050822 49 270 0.0 1.0 0.01 0.42 0.41 91 1014.9
20191115050321 49 257 0.0 0.0 0.02 0.42 0.40 91 1014.8
20191115045813 49 346 0.0 0.0 0.02 0.42 0.40 91 1014.7
20191115045246 49 346 0.0 0.0 0.02 0.42 0.40 91 1014.8
20191115044750 49 346 0.0 0.0 0.02 0.42 0.40 91 1014.7
20191115044218 49 345 0.0 0.0 0.03 0.42 0.40 91 1014.7
20191115043652 49 261 0.0 0.0 0.04 0.42 0.40 91 1014.5
20191115043155 49 262 0.0 0.0 0.04 0.42 0.40 91 1014.5
20191115042653 49 269 0.0 0.0 0.05 0.42 0.40 91 1014.5
20191115042156 49 266 0.0 0.0 0.05 0.42 0.40 91 1014.5
20191115041629 49 266 0.0 0.0 0.05 0.41 0.39 91 1014.4
20191115041101 49 266 0.0 0.0 0.07 0.41 0.39 91 1014.4
20191115040558 49 264 0.0 0.0 0.07 0.40 0.39 91 1014.4
20191115040056 49 266 0.0 0.0 0.08 0.40 0.39 91 1014.3
20191115035528 49 266 0.0 0.0 0.09 0.40 0.39 91 1014.2
20191115035025 49 266 0.0 0.0 0.11 0.39 0.38 91 1014.1
20191115034501 49 266 0.0 0.0 0.12 0.39 0.37 91 1014.2
20191115033931 49 266 0.0 0.0 0.13 0.39 0.37 91 1014.1
20191115033429 50 265 0.0 0.0 0.14 0.38 0.36 91 1014.0
20191115032903 50 266 0.0 0.0 0.15 0.38 0.36 91 1014.0
20191115032356 49 265 0.0 0.0 0.14 0.37 0.35 91 1013.9
20191115031854 50 266 0.0 0.0 0.14 0.36 0.35 91 1013.8
20191115031326 50 264 0.0 0.0 0.13 0.35 0.34 91 1013.8
20191115030822 50 263 0.0 0.0 0.11 0.33 0.31 91 1013.8
20191115030256 50 263 0.0 0.0 0.10 0.32 0.31 91 1013.7
20191115025753 50 266 0.0 0.0 0.11 0.32 0.31 91 1013.7
20191115025246 50 262 0.0 0.0 0.09 0.30 0.28 91 1013.7
20191115024744 50 262 0.0 0.0 0.08 0.28 0.27 91 1013.6
20191115024216 50 262 0.0 0.0 0.07 0.26 0.24 91 1013.6
20191115023713 50 274 0.0 0.0 0.06 0.24 0.23 91 1013.6
20191115023146 50 253 0.0 0.0 0.05 0.24 0.22 91 1013.5
20191115022643 50 253 0.0 2.0 0.05 0.23 0.21 91 1013.5
20191115022116 50 252 0.0 2.0 0.04 0.22 0.20 91 1013.5
20191115021618 49 228 0.0 2.0 0.04 0.22 0.20 91 1013.5
20191115021106 49 257 0.0 2.0 0.05 0.22 0.20 91 1013.4
20191115020604 49 243 1.0 4.0 0.06 0.22 0.20 91 1013.5
20191115020036 49 238 1.0 4.0 0.05 0.21 0.20 91 1013.5
20191115015533 49 242 1.0 2.0 0.04 0.20 0.19 91 1013.5
20191115015008 49 255 1.0 3.0 0.04 0.20 0.18 91 1013.5
20191115014446 49 239 0.0 3.0 0.05 0.20 0.18 91 1013.6
20191115013915 49 262 0.0 3.0 0.05 0.19 0.17 91 1013.5
20191115013347 49 269 0.0 3.0 0.06 0.19 0.17 91 1013.5
20191115012822 49 267 0.0 2.0 0.06 0.18 0.17 91 1013.5
20191115012310 49 1 0.0 1.0 0.06 0.18 0.17 91 1013.5
20191115011811 49 257 0.0 0.0 0.07 0.18 0.17 91 1013.4
20191115011244 49 267 0.0 0.0 0.09 0.17 0.17 91 1013.5
20191115010742 49 262 0.0 0.0 0.10 0.17 0.16 91 1013.5
20191115010214 49 286 0.0 0.0 0.10 0.17 0.15 91 1013.5
20191115005711 49 259 0.0 0.0 0.11 0.17 0.15 91 1013.4
20191115005146 49 262 0.0 0.0 0.10 0.16 0.14 91 1013.4
20191115004638 49 242 0.0 0.0 0.11 0.16 0.14 91 1013.4
20191115004138 49 224 0.0 0.0 0.10 0.15 0.13 91 1013.4
20191115003608 49 224 0.0 0.0 0.09 0.14 0.13 91 1013.3
20191115003111 49 222 0.0 0.0 0.09 0.13 0.12 91 1013.4
20191115002550 49 222 0.0 0.0 0.09 0.13 0.11 91 1013.4
20191115002048 49 222 0.0 0.0 0.08 0.11 0.09 91 1013.4
20191115001522 49 221 0.0 0.0 0.06 0.09 0.08 91 1013.4
20191115000954 49 221 0.0 0.0 0.06 0.08 0.06 91 1013.3
20191115000450 49 221 0.0 0.0 0.06 0.07 0.06 91 1013.3
20191114235950 49 221 0.0 0.0 0.05 0.06 0.05 91 1013.3
20191114235447 49 221 0.0 0.0 0.04 0.06 0.04 91 1013.2
20191114234944 49 221 0.0 0.0 0.04 0.06 0.04 91 1013.1
20191114234442 49 221 0.0 0.0 0.03 0.05 0.03 91 1013.1
20191114233914 49 219 0.0 0.0 0.03 0.05 0.03 91 1013.0
20191114233411 50 219 0.0 0.0 0.03 0.05 0.03 91 1013.1
20191114232846 50 219 0.0 0.0 0.02 0.04 0.02 91 1013.0
20191114232341 50 218 0.0 0.0 0.02 0.03 0.02 91 1013.0
20191114231814 50 218 0.0 0.0 0.02 0.03 0.02 91 1012.9
20191114231311 50 218 0.0 0.0 0.02 0.03 0.02 91 1012.8
20191114230744 50 202 0.0 0.0 0.01 0.02 0.01 91 1012.8
20191114230241 50 203 0.0 0.0 0.00 0.02 0.00 91 1012.8
20191114225716 50 322 0.0 0.0 0.00 0.02 0.00 91 1012.7
20191114225149 50 322 0.0 0.0 0.00 0.02 0.00 91 1012.6
20191114224646 50 319 0.0 0.0 0.00 0.02 0.00 91 1012.6
20191114224121 50 319 0.0 0.0 0.00 0.02 0.00 91 1012.8
20191114223619 50 319 0.0 1.0 0.00 0.02 0.00 91 1012.8
20191114223051 50 8 0.0 1.0 0.00 0.02 0.00 91 1013.0
20191114222549 50 79 0.0 0.0 0.00 0.02 0.00 91 1012.8
20191114222022 50 257 0.0 0.0 0.01 0.02 0.00 91 1012.9
20191114221453 50 145 0.0 3.0 0.01 0.02 0.00 91 1013.0
20191114220951 50 23 0.0 3.0 0.01 0.02 0.00 91 1013.1
20191114220427 50 84 0.0 0.0 0.01 0.02 0.00 91 1013.2
20191114215923 50 355 0.0 0.0 0.01 0.02 0.02 91 1013.3
20191114215357 50 101 0.0 0.0 0.01 0.02 0.02 91 1013.3
20191114214853 50 102 0.0 1.0 0.02 0.02 0.02 91 1013.3
20191114214326 50 105 0.0 1.0 0.02 0.02 0.02 91 1013.3
20191114213823 50 115 0.0 0.0 0.02 0.02 0.02 91 1013.3
20191114213255 50 115 0.0 0.0 0.02 0.02 0.02 91 1013.5
20191114212756 50 115 0.0 4.0 0.02 0.02 0.02 91 1013.5
20191114212241 50 143 0.0 4.0 0.01 0.01 0.01 91 1013.5
20191114211745 51 300 0.0 3.0 0.01 0.01 0.01 91 1013.6
20191114211214 50 115 0.0 2.0 0.01 0.01 0.01 91 1013.6
20191114210717 51 270 0.0 0.0 0.01 0.01 0.01 91 1013.9
20191114210046 51 45 0.0 2.0 0.01 0.01 0.01 91 1013.9
20191114205541 51 95 0.0 4.0 0.01 0.01 0.01 91 1013.9
20191114205040 51 300 0.0 4.0 0.01 0.01 0.01 91 1013.9
20191114204537 51 351 0.0 4.0 0.00 0.00 0.00 91 1014.0
20191114204010 51 289 1.0 4.0 0.00 0.00 0.00 91 1014.1
20191114203505 51 257 1.0 4.0 0.00 0.00 0.00 91 1014.1
20191114203003 51 73 1.0 4.0 0.00 0.00 0.00 91 1014.1
20191114202439 51 326 1.0 4.0 0.00 0.00 0.00 90 1014.2
20191114201926 51 134 0.0 3.0 0.00 0.00 0.00 90 1014.3
20191114201428 51 3 1.0 4.0 0.00 0.00 0.00 90 1014.4
20191114200923 51 68 1.0 4.0 0.00 0.00 0.00 90 1014.4
20191114200422 51 8 1.0 4.0 0.00 0.00 0.00 89 1014.5
20191114195854 51 26 0.0 3.0 0.00 0.00 0.00 89 1014.4
20191114195351 51 148 0.0 1.0 0.00 0.00 0.00 89 1014.4
20191114194823 51 167 0.0 1.0 0.00 0.00 0.00 89 1014.4
20191114194321 52 320 0.0 0.0 0.00 0.00 0.00 88 1014.5
20191114193754 52 111 0.0 3.0 0.00 0.00 0.00 88 1014.4
20191114193250 52 112 1.0 7.0 0.00 0.00 0.00 87 1014.5
20191114192725 52 136 1.0 7.0 0.00 0.00 0.00 87 1014.4
20191114192200 52 126 1.0 4.0 0.00 0.00 0.00 86 1014.4
20191114191632 52 124 0.0 4.0 0.00 0.00 0.00 86 1014.4
20191114191131 52 274 0.0 1.0 0.00 0.00 0.00 86 1014.3
20191114190622 52 318 0.0 2.0 0.00 0.00 0.00 85 1014.3
20191114190122 52 300 0.0 2.0 0.00 0.00 0.00 85 1014.3
20191114185553 53 262 0.0 2.0 0.00 0.00 0.00 85 1014.3
20191114185026 53 280 1.0 4.0 0.00 0.00 0.00 84 1014.3
20191114184523 53 49 1.0 5.0 0.00 0.00 0.00 83 1014.3
20191114183955 53 5 1.0 4.0 0.00 0.00 0.00 83 1014.2
20191114183459 53 30 1.0 4.0 0.00 0.00 0.00 82 1014.2
20191114182946 53 56 0.0 0.0 0.00 0.00 0.00 81 1014.2
20191114182445 53 100 0.0 2.0 0.00 0.00 0.00 81 1014.1
20191114181916 53 100 0.0 3.0 0.00 0.00 0.00 81 1014.1
20191114181415 53 43 0.0 2.0 0.00 0.00 0.00 81 1014.1
20191114180910 53 262 0.0 2.0 0.00 0.00 0.00 81 1014.0
20191114180405 53 105 0.0 3.0 0.00 0.00 0.00 81 1013.9
20191114175840 53 318 0.0 0.0 0.00 0.00 0.00 81 1013.9
20191114175337 53 74 0.0 0.0 0.00 0.00 0.00 81 1014.0
20191114174834 53 75 0.0 0.0 0.00 0.00 0.00 81 1014.0
20191114174306 53 75 0.0 0.0 0.00 0.00 0.00 81 1014.1
20191114173804 53 54 0.0 0.0 0.00 0.00 0.00 80 1014.1
20191114173247 53 54 0.0 4.0 0.00 0.00 0.00 80 1013.9
20191114172747 53 54 0.0 4.0 0.00 0.00 0.00 80 1013.9
20191114172247 53 39 0.0 2.0 0.00 0.00 0.00 80 1013.8
20191114171734 53 271 1.0 7.0 0.00 0.00 0.00 79 1013.7
20191114171231 53 21 2.0 7.0 0.00 0.00 0.00 79 1013.7
20191114170719 53 6 2.0 6.0 0.00 0.00 0.00 79 1013.7
20191114170213 53 270 2.0 7.0 0.00 0.00 0.00 79 1013.8
20191114165710 53 44 1.0 7.0 0.00 0.00 0.00 80 1013.9
20191114165141 53 243 1.0 7.0 0.00 0.00 0.00 80 1014.0
20191114164639 53 41 2.0 8.0 0.00 0.00 0.00 80 1014.0
20191114164135 53 246 2.0 8.0 0.00 0.00 0.00 80 1013.9
20191114163634 53 342 1.0 5.0 0.00 0.00 0.00 81 1013.9
20191114163106 53 326 1.0 5.0 0.00 0.00 0.00 81 1013.8
20191114162603 53 358 1.0 4.0 0.00 0.00 0.00 82 1013.8
20191114162035 53 80 1.0 6.0 0.00 0.00 0.00 82 1014.0
20191114161533 53 126 1.0 6.0 0.00 0.00 0.00 82 1013.9
20191114161016 52 70 2.0 7.0 0.00 0.00 0.00 83 1013.8
20191114160447 53 218 3.0 7.0 0.00 0.00 0.00 82 1013.8
20191114155944 53 81 2.0 8.0 0.00 0.00 0.00 82 1013.8
20191114155442 53 153 2.0 8.0 0.00 0.00 0.00 82 1013.8
20191114154939 53 112 1.0 6.0 0.00 0.00 0.00 82 1013.7
20191114154423 53 137 1.0 5.0 0.00 0.00 0.00 81 1013.5
20191114153922 53 131 0.0 3.0 0.00 0.00 0.00 81 1013.1
20191114153354 53 248 0.0 3.0 0.00 0.00 0.00 81 1013.0
20191114152849 53 112 0.0 4.0 0.00 0.00 0.00 81 1013.1
20191114152347 53 79 0.0 4.0 0.00 0.00 0.00 81 1013.1
20191114151849 53 191 0.0 1.0 0.00 0.00 0.00 82 1013.1
20191114151338 53 177 0.0 1.0 0.00 0.00 0.00 82 1013.2
20191114150835 53 66 0.0 0.0 0.00 0.00 0.00 82 1013.1
20191114150322 53 66 0.0 0.0 0.00 0.00 0.00 81 1013.1
20191114145825 53 68 0.0 0.0 0.00 0.00 0.00 81 1013.2
20191114145258 53 145 0.0 0.0 0.00 0.01 0.00 81 1013.1
20191114144755 53 113 0.0 0.0 0.00 0.01 0.00 81 1013.2
20191114144228 53 91 0.0 2.0 0.00 0.01 0.00 81 1013.1
20191114143726 53 49 0.0 4.0 0.00 0.01 0.00 80 1013.3
20191114143202 54 113 0.0 4.0 0.00 0.01 0.00 80 1013.4
20191114142633 54 65 1.0 5.0 0.00 0.01 0.00 80 1013.4
20191114142128 54 42 1.0 3.0 0.00 0.01 0.00 80 1013.5
20191114141635 54 138 1.0 4.0 0.00 0.01 0.00 80 1013.6
20191114141118 54 124 1.0 6.0 0.00 0.01 0.00 80 1013.5
20191114140615 54 49 1.0 6.0 0.00 0.01 0.00 80 1013.5
20191114140048 54 63 0.0 3.0 0.00 0.01 0.00 79 1013.5
20191114135546 55 58 0.0 3.0 0.00 0.01 0.00 79 1013.5
20191114135019 55 68 0.0 4.0 0.00 0.02 0.00 79 1013.5
20191114134452 55 68 0.0 4.0 0.00 0.02 0.00 79 1013.6
20191114133949 55 96 1.0 4.0 0.00 0.02 0.00 79 1013.6
20191114133424 55 51 1.0 5.0 0.00 0.02 0.00 79 1013.6
20191114132919 55 92 1.0 5.0 0.00 0.02 0.00 79 1013.7
20191114132412 55 174 1.0 6.0 0.00 0.02 0.00 79 1013.7
20191114131912 55 101 2.0 8.0 0.00 0.02 0.00 78 1013.5
20191114131344 55 121 2.0 8.0 0.00 0.02 0.00 78 1013.5
20191114130816 55 132 1.0 10.0 0.00 0.02 0.00 79 1013.4
20191114130313 56 73 2.0 10.0 0.00 0.02 0.00 78 1013.4
20191114125748 56 110 3.0 10.0 0.00 0.02 0.00 78 1013.4
20191114125222 56 118 3.0 10.0 0.00 0.02 0.00 78 1013.4
20191114124717 56 136 2.0 5.0 0.00 0.02 0.00 78 1013.4
20191114124214 56 124 3.0 8.0 0.00 0.02 0.00 78 1013.3
20191114123711 56 83 2.0 8.0 0.00 0.02 0.00 78 1013.3
20191114123143 56 141 2.0 8.0 0.00 0.02 0.00 78 1013.3
20191114122643 57 125 3.0 8.0 0.00 0.02 0.00 78 1013.3
20191114122136 57 124 2.0 6.0 0.00 0.02 0.00 78 1013.3
20191114121632 57 130 3.0 7.0 0.00 0.02 0.00 78 1013.4